Location: U-46 Planetarium
(42.0300°N, 88.2740°W)
Time: 22:07:51
(UTC-05:00)

Atlas Centaur 2 - Pass Details

Date: 16 December 2017
Orbit: 459 x 1312 km, 30.4° (Epoch: 26 April)

Event Time Altitude Azimuth Distance (km) Brightness Sun altitude
Rises 18:22:39 0° 256° (WSW) 3,346 6.9 -21.4°
Reaches altitude 10° 18:27:03 10° 226° (SW) 2,176 5.1 -22.2°
Maximum altitude 18:28:49 12° 205° (SSW) 1,968 4.6 -22.5°
Drops below altitude 10° 18:30:28 10° 184° (S) 1,999 4.3 -22.8°
Enters shadow 18:32:28 - 163° (SSE) 2,318 4.4 -23.2°
